This is the latest recevied weather packets stored in our database for station/object VR2HK-13. If no packets are shown the sender has not sent any weather packets the latest 1 day(s).
| Time | Temp. | Humidity | Pressure | Rain* | Wind** | Luminosity | Snow |
|---|---|---|---|---|---|---|---|
| 1778054418 | 24.44° C | 81% | 1011.9 hPa | 1.02 mm | 0 m/s | - | - |
| 1778054407 | 24.44° C | 81% | 1011.9 hPa | 1.02 mm | 0 m/s | - | - |
| 1778054109 | 24.44° C | 81% | 1011.9 hPa | 0.76 mm | 1.34 m/s, 223° | - | - |
| 1778054107 | 24.44° C | 81% | 1011.9 hPa | 0.76 mm | 1.34 m/s, 231° | - | - |
| 1778053806 | 24.44° C | 81% | 1012 hPa | 0.51 mm | 0 m/s | - | - |
| 1778053798 | 24.44° C | 81% | 1012 hPa | 0.51 mm | 0 m/s | - | - |
| 1778053507 | 23.89° C | 81% | 1012.1 hPa | 0.51 mm | 1.34 m/s, 278° | - | - |
| 1778053488 | 23.89° C | 80% | 1012.1 hPa | 0.51 mm | 1.79 m/s, 2° | - | - |
| 1778053207 | 23.89° C | 81% | 1012 hPa | 0.76 mm | 0.45 m/s, 29° | - | - |
| 1778053178 | 23.89° C | 81% | 1012.1 hPa | 0.76 mm | 0.45 m/s, 230° | - | - |
| 1778052906 | 24.44° C | 81% | 1012 hPa | 0.76 mm | 2.24 m/s, 260° | - | - |
| 1778052868 | 24.44° C | 81% | 1012.1 hPa | 0.76 mm | 2.24 m/s, 265° | - | - |
| 1778052607 | 24.44° C | 81% | 1012.2 hPa | 0.76 mm | 0.45 m/s, 360° | - | - |
| 1778052558 | 24.44° C | 81% | 1012.2 hPa | 0.76 mm | 0 m/s | - | - |
| 1778052307 | 23.89° C | 81% | 1012.2 hPa | 0.76 mm | 1.34 m/s, 311° | - | - |
| 1778052247 | 23.89° C | 81% | 1012.2 hPa | 0.76 mm | 1.34 m/s, 59° | - | - |
| 1778052006 | 23.89° C | 80% | 1012.3 hPa | 0.51 mm | 2.68 m/s, 282° | - | - |
| 1778051938 | 23.89° C | 81% | 1012.2 hPa | 0.51 mm | 1.79 m/s, 241° | - | - |
| 1778051715 | 23.89° C | 80% | 1012.3 hPa | 0.51 mm | 0.45 m/s, 39° | - | - |
| 1778051628 | 23.89° C | 80% | 1012.4 hPa | 0.51 mm | 1.79 m/s, 313° | - | - |
| 1778051407 | 24.44° C | 80% | 1012.3 hPa | 0.51 mm | 1.79 m/s, 60° | - | - |
| 1778051318 | 24.44° C | 81% | 1012.3 hPa | 0.51 mm | 0.89 m/s, 235° | - | - |
| 1778051106 | 24.44° C | 80% | 1012.2 hPa | 0.51 mm | 0.89 m/s, 246° | - | - |
| 1778051007 | 24.44° C | 80% | 1012.2 hPa | 0.51 mm | 1.34 m/s, 242° | - | - |
| 1778050806 | 24.44° C | 80% | 1012.3 hPa | 0.51 mm | 0.89 m/s, 270° | - | - |
* Rain latest hour (hover to see other rain measurements)
** Current wind speed in m/s (hover to see current wind gust speed)